Stations météo

Publicité
Abbeville, France (7005): Température de l'air & dewpoint: 15.10.2017 10:00:00 - 21.10.2017 10:00:00 (CEST)Abbeville, France (7005): Température de l'air 5cm: 15.10.2017 10:00:00 - 21.10.2017 10:00:00 (CEST)Abbeville, France (7005): Température de l'air -20cm & Température de l'air -100cm: 15.10.2017 10:00:00 - 21.10.2017 10:00:00 (CEST)Abbeville, France (7005): Vitesse du vent & gusts: 15.10.2017 10:00:00 - 21.10.2017 10:00:00 (CEST)Abbeville, France (7005): Direction du vent: 15.10.2017 10:00:00 - 21.10.2017 10:00:00 (CEST)Abbeville, France (7005): reduced air pressure: 15.10.2017 10:00:00 - 21.10.2017 10:00:00 (CEST)Abbeville, France (7005): visibility: 15.10.2017 10:00:00 - 21.10.2017 10:00:00 (CEST)Abbeville, France (7005): Ensoleillement: 15.10.2017 10:00:00 - 21.10.2017 10:00:00 (CEST)Abbeville, France (7005): Quantités de précipitations: 15.10.2017 10:00:00 - 21.10.2017 10:00:00 (CEST)
Date & Time tt [°C] td [°C] tt 5cm [°C] tt -20cm [°C] tt -100cm [°C] ff [km/h] ff [knt] fx [km/h] fx [knt] dd ppp [hPa] vv [km] sd [min] rr [mm]
21.10.2017 10:00:00 14,3 10,7 12,9 13,8 15,1 19 10 39 21 SSW 1009,9 35 37 0,0
21.10.2017 09:00:00 13,8 11,0 12,5 13,8 15,1 16 9 31 17 SW 1009,3 30 3 0,0
21.10.2017 08:00:00 13,9 12,3 13,1 13,8 15,1 10 5 21 11 SSW 1008,5 20 0 0,0
21.10.2017 07:00:00 13,8 12,4 13,0 13,7 15,1 10 5 24 13 SSW 1008,4 12 0 0,2
21.10.2017 06:00:00 13,8 11,8 12,6 13,8 15,1 15 8 30 16 S 1008,0 20 0 0,0
21.10.2017 05:00:00 13,2 11,8 12,2 13,8 15,1 17 9 37 20 S 1008,0 20 0 1,4
21.10.2017 04:00:00 13,9 10,1 12,6 13,9 15,1 16 9 32 17 S 1008,1 20 0 0,0
21.10.2017 03:00:00 13,2 9,3 12,3 13,9 15,1 16 8 32 17 SSE 1008,9 20 0 0,0
21.10.2017 02:00:00 13,0 8,7 10,4 14,0 15,1 18 10 32 18 S 1009,8 20 0 0,0
21.10.2017 01:00:00 11,1 8,0 10,2 14,2 15,1 16 9 26 14 SE 1010,6 20 0 0,0
21.10.2017 00:00:00 11,4 7,7 9,9 14,3 15,1 18 10 24 13 SSE 1011,2 20 0 0,0
20.10.2017 23:00:00 11,0 7,5 9,9 14,4 15,1 11 6 18 10 SSE 1012,2 20 0 0,0
20.10.2017 22:00:00 11,2 7,5 10,1 14,5 15,1 11 6 16 8 SSE 1012,5 20 0 0,0
20.10.2017 21:00:00 11,9 7,2 10,6 14,5 15,1 10 6 16 9 SSE 1012,8 20 0 0,0
20.10.2017 20:00:00 12,1 7,2 10,6 14,6 15,1 7 4 19 10 S 1013,2 20 0 0,0
20.10.2017 19:00:00 13,5 8,5 12,3 14,6 15,1 8 4 27 14 S 1012,7 9 0 0,0
20.10.2017 18:00:00 14,4 7,7 14,3 14,5 15,1 16 9 29 16 SSW 1012,6 20 0 0,0
20.10.2017 17:00:00 14,6 8,3 14,6 14,5 15,1 18 10 48 26 WSW 1012,6 25 10 0,0
20.10.2017 16:00:00 15,7 8,4 14,3 14,5 15,1 23 13 46 25 WSW 1012,2 25 26 0,0
20.10.2017 15:00:00 14,6 7,2 14,3 14,5 15,1 32 17 55 30 WSW 1011,8 25 23 0,0
20.10.2017 14:00:00 15,0 7,5 14,6 14,4 15,1 37 20 64 35 WSW 1011,6 18 33 0,0
20.10.2017 13:00:00 14,0 8,2 11,3 14,4 15,1 36 19 56 30 W 1011,1 18 5 0,0
20.10.2017 12:00:00 12,3 9,7 11,1 14,5 15,1 19 10 40 21 WSW 1010,4 11 0 0,2
20.10.2017 11:00:00 11,8 10,0 10,9 14,6 15,1 24 13 53 28 SW 1009,6 13 0 0,0
20.10.2017 10:00:00 11,9 8,7 11,1 14,7 15,1 22 12 50 27 SW 1008,6 13 0 0,0
20.10.2017 09:00:00 11,8 8,5 10,7 14,8 15,1 21 11 41 22 SSW 1007,5 18 3 0,0
20.10.2017 08:00:00 11,4 8,4 10,4 14,9 15,1 19 10 43 23 SSW 1006,6 25 0 0,0
20.10.2017 07:00:00 11,4 8,4 10,6 15,0 15,1 16 9 36 20 SSW 1006,2 25 0 0,0
20.10.2017 06:00:00 12,4 9,6 11,1 15,1 15,1 17 9 34 18 SW 1005,7 20 0 0,0
20.10.2017 05:00:00 12,6 9,8 11,6 15,2 15,1 15 8 36 20 SW 1005,1 20 0 0,0
20.10.2017 04:00:00 13,5 11,4 12,3 15,3 15,1 14 8 34 18 SSW 1004,7 20 0 0,2
20.10.2017 03:00:00 14,1 12,8 13,3 15,3 15,1 14 8 34 18 S 1004,6 20 0 0,4
20.10.2017 02:00:00 14,2 12,6 13,3 15,3 15,1 17 9 40 21 S 1004,7 9 0 1,0
20.10.2017 01:00:00 15,0 12,9 13,7 15,4 15,1 22 12 41 22 SSE 1004,3 15 0 2,0
20.10.2017 00:00:00 16,0 11,8 15,1 15,5 15,1 16 9 34 18 S 1005,2 20 0 0,0
19.10.2017 23:00:00 16,3 11,7 15,1 15,6 15,1 17 9 35 19 S 1005,2 20 0 0,0
19.10.2017 22:00:00 16,5 11,2 15,2 15,6 15,1 17 9 38 21 SSE 1005,2 20 0 0,0
19.10.2017 21:00:00 16,8 11,3 15,6 15,6 15,1 11 6 30 16 S 1005,2 20 0 0,0
19.10.2017 20:00:00 17,5 12,0 16,4 15,7 15,1 18 10 35 19 S 1005,4 20 0 0,0
19.10.2017 19:00:00 18,2 13,1 17,2 15,6 15,1 14 8 25 13 SSE 1005,7 20 0 0,0
19.10.2017 18:00:00 18,7 13,1 18,3 15,5 15,1 13 7 35 19 S 1005,7 20 8 0,0
19.10.2017 17:00:00 19,9 13,8 19,5 15,4 15,1 15 8 39 21 S 1005,5 30 17 0,0
19.10.2017 16:00:00 20,0 14,4 17,5 15,2 15,1 16 9 39 21 S 1005,7 30 14 0,0
19.10.2017 15:00:00 20,6 13,8 21,7 14,9 15,1 16 9 47 26 S 1005,7 20 46 0,0
19.10.2017 14:00:00 20,7 14,3 22,2 14,7 15,1 17 9 44 24 S 1005,8 30 60 0,0
19.10.2017 13:00:00 19,2 14,0 16,6 14,6 15,1 19 11 32 18 SSE 1006,5 20 43 0,0
19.10.2017 12:00:00 15,4 12,5 15,5 14,6 15,1 15 8 30 16 SE 1007,1 20 0 0,0
19.10.2017 11:00:00 14,4 11,5 14,2 14,7 15,1 15 8 28 15 SE 1007,5 15 30 0,0
19.10.2017 10:00:00 13,2 10,7 12,2 14,7 15,1 15 8 31 17 SE 1008,0 15 6 0,0
19.10.2017 09:00:00 12,3 10,4 11,4 14,8 15,1 12 7 21 11 ESE 1008,0 8 0 0,0
19.10.2017 08:00:00 12,0 10,1 11,4 14,9 15,1 14 7 22 12 ESE 1008,0 10 0 0,0
19.10.2017 07:00:00 12,2 10,3 11,6 15,0 15,1 11 6 21 11 ESE 1008,6 12 0 0,0
19.10.2017 06:00:00 12,5 10,7 11,5 15,1 15,1 13 7 20 11 ESE 1008,8 11 0 0,0
19.10.2017 05:00:00 12,0 10,6 11,4 15,2 15,1 9 5 14 8 ESE 1009,3 7 0 0,2
19.10.2017 04:00:00 12,6 11,2 11,8 15,4 15,1 8 4 14 8 ESE 1009,5 7 0 0,0
19.10.2017 03:00:00 12,9 11,5 12,3 15,4 15,1 11 6 14 8 E 1010,2 8 0 0,0
19.10.2017 02:00:00 13,2 11,6 12,5 15,5 15,1 10 5 12 7 E 1010,6 9 0 0,0
19.10.2017 01:00:00 14,0 12,0 13,3 15,6 15,1 7 4 12 6 ESE 1011,2 9 0 0,0
19.10.2017 00:00:00 14,3 12,5 13,1 15,7 15,1 9 5 13 7 ESE 1011,2 9 0 0,0
18.10.2017 23:00:00 14,6 12,6 12,9 15,7 15,1 5 3 10 6 E 1011,2 10 0 0,0
18.10.2017 22:00:00 15,6 13,6 13,6 15,8 15,1 8 5 12 6 E 1011,1 11 0 0,0
18.10.2017 21:00:00 15,5 13,9 14,6 15,9 15,1 7 4 10 5 E 1011,2 10 0 0,0
18.10.2017 20:00:00 16,4 14,2 15,2 15,8 15,1 8 4 13 7 SE 1011,4 14 0 0,0
18.10.2017 19:00:00 17,3 14,4 16,3 15,7 15,1 8 4 15 8 SE 1010,9 17 24 0,0
18.10.2017 18:00:00 18,6 15,1 19,2 15,5 15,1 12 7 21 11 SE 1010,7 19 39 0,0
18.10.2017 17:00:00 19,9 15,7 21,7 15,4 15,1 8 5 18 10 SSE 1011,1 18 60 0,0
18.10.2017 16:00:00 18,8 15,5 19,2 15,3 15,1 11 6 17 9 SE 1011,4 16 2 0,0
18.10.2017 15:00:00 18,1 15,0 17,3 15,1 15,1 6 3 12 6 SSE 1011,4 16 0 0,0
18.10.2017 14:00:00 17,6 14,7 17,1 15,0 15,1 4 2 11 6 SSE 1012,0 14 0 0,2
18.10.2017 13:00:00 17,5 14,2 17,5 14,9 15,1 4 2 21 11 SSW 1012,3 14 0 0,0
18.10.2017 12:00:00 16,2 14,2 16,3 14,8 15,1 15 8 21 12 SSE 1012,3 10 18 0,0
18.10.2017 11:00:00 13,8 13,5 13,3 14,8 15,1 7 4 16 9 ESE 1012,4 6 19 0,0
18.10.2017 10:00:00 12,5 12,2 11,8 14,9 15,1 10 5 16 9 SE 1012,3 0,9 0 0,0
18.10.2017 09:00:00 11,7 11,4 11,6 14,9 15,1 9 5 18 10 SE 1012,1 0,2 0 0,0
18.10.2017 08:00:00 11,8 11,5 11,7 15,0 15,0 11 6 21 11 SE 1012,0 0,2 0 0,0
18.10.2017 07:00:00 12,1 11,8 11,6 15,1 15,0 8 4 15 8 ESE 1012,3 0,2 0 0,2
18.10.2017 06:00:00 11,7 11,1 10,9 15,2 15,1 7 4 16 9 ESE 1012,8 6 0 0,0
18.10.2017 05:00:00 11,6 10,8 10,8 15,3 15,1 8 5 15 8 ESE 1013,1 4,6 0 0,0
18.10.2017 04:00:00 11,8 11,0 11,1 15,4 15,1 6 4 13 7 SE 1013,6 4,6 0 0,0
18.10.2017 03:00:00 12,2 11,1 11,3 15,5 15,0 6 4 10 6 ESE 1014,0 7 0 0,0
18.10.2017 02:00:00 12,6 11,5 11,5 15,6 15,0 6 3 11 6 ESE 1014,2 9 0 0,0
18.10.2017 01:00:00 12,6 11,2 11,9 15,7 15,0 7 4 16 9 E 1014,7 11 0 0,0
18.10.2017 00:00:00 12,7 11,1 12,0 15,9 15,0 10 5 15 8 E 1015,3 13 0 0,0
17.10.2017 23:00:00 13,1 11,3 12,2 16,0 15,1 10 5 16 9 ENE 1016,2 13 0 0,0
17.10.2017 22:00:00 13,6 11,6 12,6 16,0 15,0 11 6 19 10 ENE 1016,4 17 0 0,0
17.10.2017 21:00:00 14,2 11,5 12,9 16,1 15,0 7 4 13 7 NE 1016,7 19 0 0,0
17.10.2017 20:00:00 15,4 12,2 14,9 16,1 15,0 9 5 13 7 NNE 1017,3 19 0 0,0
17.10.2017 19:00:00 15,6 12,7 14,8 16,1 15,0 6 3 9 5 N 1017,7 18 0 0,0
17.10.2017 18:00:00 16,3 11,7 16,6 16,0 15,0 6 3 14 8 NE 1017,8 19 13 0,0
17.10.2017 17:00:00 16,9 11,2 18,5 15,8 15,0 8 5 14 8 NE 1018,1 18 21 0,0
17.10.2017 16:00:00 17,0 11,7 19,3 15,6 15,0 8 4 13 7 NNE 1018,8 18 12 0,0
17.10.2017 15:00:00 17,2 11,0 20,6 15,5 15,0 2 1 9 5 ENE 1019,7 18 27 0,0
17.10.2017 14:00:00 16,6 11,9 17,5 15,4 15,0 2 1 8 5 N 1020,8 16 5 0,0
17.10.2017 13:00:00 15,9 11,1 16,0 15,3 15,0 5 3 9 5 SSE 1021,8 14 6 0,0
17.10.2017 12:00:00 14,4 11,7 13,7 15,4 15,0 6 3 11 6 SSE 1022,1 14 0 0,0
17.10.2017 11:00:00 13,0 11,6 12,4 15,4 15,0 5 3 10 5 SSE 1022,4 12 0 0,0
17.10.2017 10:00:00 12,2 11,3 11,2 15,6 15,0 7 4 9 5 SE 1022,6 8 0 0,0
17.10.2017 09:00:00 11,9 11,0 11,1 15,7 15,0 7 4 10 6 SE 1022,4 8 0 0,0
17.10.2017 08:00:00 12,1 11,2 10,4 15,8 15,0 7 4 11 6 SSE 1022,1 8 0 0,0
17.10.2017 07:00:00 12,3 11,2 10,3 16,0 15,0 3 2 7 4 SSW 1021,8 10 0 0,0
17.10.2017 06:00:00 12,7 11,4 11,0 16,1 15,0 6 3 11 6 SW 1021,9 10 0 0,0
17.10.2017 05:00:00 13,4 11,8 12,3 16,2 15,0 8 4 11 6 WSW 1021,9 13 0 0,0
17.10.2017 04:00:00 13,9 11,9 13,0 16,3 15,0 8 4 15 8 SW 1022,1 14 0 0,0
17.10.2017 03:00:00 14,4 12,1 13,4 16,4 15,0 8 5 22 12 SW 1022,0 15 0 0,0
17.10.2017 02:00:00 15,2 12,5 14,4 16,5 15,0 12 6 25 13 WSW 1022,1 16 0 0,0
17.10.2017 01:00:00 15,9 12,8 15,0 16,6 15,0 11 6 26 14 WSW 1022,0 17 0 0,0
17.10.2017 00:00:00 16,3 13,2 15,6 16,8 15,0 13 7 23 13 W 1021,9 16 0 0,0
16.10.2017 23:00:00 16,8 13,3 16,1 16,8 15,0 16 9 29 16 W 1021,7 17 0 0,0
16.10.2017 22:00:00 17,1 14,2 16,5 16,9 15,0 17 9 28 15 W 1021,0 16 0 0,0
16.10.2017 21:00:00 18,2 14,5 17,1 17,0 15,0 16 9 23 12 W 1020,5 20 0 0,0
16.10.2017 20:00:00 19,4 13,8 17,3 17,0 15,0 7 4 19 10 WSW 1020,2 20 0 0,0
16.10.2017 19:00:00 20,8 14,4 19,3 17,0 15,0 13 7 21 11 WSW 1019,6 20 0 0,0
16.10.2017 18:00:00 22,3 15,2 21,3 16,8 15,0 5 3 21 11 S 1018,9 20 0 0,0
16.10.2017 17:00:00 24,0 15,0 25,0 16,6 15,0 8 4 24 13 SSW 1018,6 20 26 0,0
16.10.2017 16:00:00 24,6 15,0 25,8 16,4 15,0 13 7 23 13 SW 1018,4 30 25 0,0
16.10.2017 15:00:00 25,1 14,2 26,0 16,2 15,0 9 5 48 26 S 1018,3 30 54 0,0
16.10.2017 14:00:00 24,4 13,9 25,6 16,1 15,0 25 13 49 26 SSE 1018,2 30 58 0,0
16.10.2017 13:00:00 24,0 14,4 24,4 15,9 15,0 25 14 38 20 SSE 1018,4 30 60 0,0
16.10.2017 12:00:00 22,1 15,0 21,6 15,8 15,0 22 12 36 19 SSE 1018,8 25 58 0,0
16.10.2017 11:00:00 19,5 14,9 19,7 15,8 15,0 19 10 32 17 SE 1019,2 20 60 0,0
16.10.2017 10:00:00 18,0 14,5 16,9 15,8 15,0 13 7 21 11 ESE 1019,1 20 30 0,0
16.10.2017 09:00:00 17,1 14,4 16,8 15,8 15,0 12 6 22 12 ESE 1019,1 30 0 0,0
16.10.2017 08:00:00 17,5 14,6 16,5 15,9 14,9 11 6 19 11 SE 1018,8 25 0 0,0
16.10.2017 07:00:00 17,5 14,4 16,4 15,9 15,0 14 7 21 12 SE 1018,9 20 0 0,0
16.10.2017 06:00:00 17,7 14,6 16,7 16,0 15,0 15 8 23 12 SE 1018,9 20 0 0,0
16.10.2017 05:00:00 18,0 14,7 16,9 16,1 15,0 13 7 21 11 SE 1019,1 20 0 0,0
16.10.2017 04:00:00 18,4 14,9 17,0 16,1 15,0 15 8 21 11 SE 1019,4 20 0 0,0
16.10.2017 03:00:00 18,3 14,8 17,3 16,1 15,0 12 7 26 14 SSE 1019,7 20 0 0,0
16.10.2017 02:00:00 18,9 15,0 17,9 16,1 15,0 15 8 27 14 SE 1019,7 20 0 0,0
16.10.2017 01:00:00 19,6 15,3 18,3 16,1 15,0 17 9 26 14 SE 1019,9 20 0 0,0
16.10.2017 00:00:00 19,8 15,2 17,4 16,2 15,0 16 9 26 14 SE 1020,0 20 0 0,0
15.10.2017 23:00:00 19,8 15,4 17,8 16,2 15,0 13 7 23 13 S 1020,1 17 0 0,0
15.10.2017 22:00:00 19,3 14,8 17,5 16,3 15,0 11 6 20 11 SSE 1020,0 20 0 0,0
15.10.2017 21:00:00 18,9 14,4 17,5 16,3 15,0 11 6 19 10 SSE 1019,9 20 0 0,0
15.10.2017 20:00:00 20,0 14,4 18,3 16,3 15,0 11 6 18 10 SSE 1019,8 20 0 0,0
15.10.2017 19:00:00 21,2 13,9 19,7 16,2 15,0 10 5 17 9 S 1019,4 20 0 0,0
15.10.2017 18:00:00 22,9 13,7 23,1 16,1 15,0 9 5 23 12 S 1019,2 20 44 0,0
15.10.2017 17:00:00 24,2 13,4 26,7 15,9 15,0 11 6 31 17 S 1019,1 30 60 0,0
15.10.2017 16:00:00 24,3 12,6 26,4 15,5 15,0 16 9 27 15 S 1019,3 30 60 0,0
15.10.2017 15:00:00 24,4 13,6 26,0 15,2 14,9 13 7 29 16 S 1019,7 30 60 0,0
15.10.2017 14:00:00 22,8 14,9 24,5 15,0 14,9 15 8 22 12 SSE 1020,1 20 60 0,0
15.10.2017 13:00:00 20,8 14,7 22,0 14,8 14,9 14 7 20 11 SSE 1020,7 20 60 0,0
15.10.2017 12:00:00 18,3 14,0 19,4 14,7 14,9 13 7 27 14 SSE 1021,1 15 60 0,0
15.10.2017 11:00:00 16,7 13,0 17,1 14,8 15,0 14 8 24 13 SSE 1021,1 12 60 0,0
15.10.2017 10:00:00 15,0 12,3 12,2 14,9 15,0 11 6 17 9 SE 1021,1 8 60 0,0

tt = Température de l'air
td = dewpoint
tt 5cm = Température de l'air 5cm
tt -20cm = Température de l'air -20cm
tt -100cm = Température de l'air -100cm
ff = Vitesse du vent
fx = gusts
dd = Direction du vent
ppp = reduced air pressure
vv = visibility
sd = Ensoleillement
rr = Quantités de précipitations

stations d'obs. à proximité